| time (UTC) | temp C | wind direction | speed KPH | gust KPH | rain 1hr cm | rain 24hr cm | rain mn cm | humidity % | barometer mb |
| 20260504100103 | 7 | 159 | 0.0 | 0.0 | 0.00 | 0.00 | 0.00 | 75 | 1012.6 |
| 20260504090112 | 7 | 0 | 0.0 | 1.6 | 0.00 | 0.00 | 0.00 | 75 | 1013.2 |
| 20260504081558 | 7 | 0 | 0.0 | 0.0 | 0.00 | 0.00 | 0.00 | 77 | 1013.3 |
| 20260504044620 | 9 | 0 | 0.0 | 3.2 | 0.00 | 0.00 | 0.00 | 77 | 1014.8 |
| 20260504043057 | 9 | 0 | 0.0 | 1.6 | 0.00 | 0.00 | 0.00 | 75 | 1014.9 |
| 20260504041556 | 9 | 0 | 0.0 | 0.0 | 0.00 | 0.00 | 0.00 | 72 | 1015.0 |
| 20260504040112 | 9 | 0 | 0.0 | 3.2 | 0.00 | 0.00 | 0.00 | 70 | 1014.7 |
| 20260504034607 | 9 | 0 | 0.0 | 0.0 | 0.00 | 0.00 | 0.00 | 70 | 1014.8 |
| 20260504033057 | 9 | 0 | 0.0 | 0.0 | 0.00 | 0.00 | 0.00 | 69 | 1014.7 |
| 20260504031559 | 9 | 0 | 0.0 | 1.6 | 0.00 | 0.00 | 0.00 | 69 | 1014.6 |
| 20260504030057 | 9 | 0 | 0.0 | 1.6 | 0.00 | 0.00 | 0.00 | 68 | 1014.5 |
| 20260504024600 | 8 | 0 | 0.0 | 1.6 | 0.00 | 0.00 | 0.00 | 68 | 1014.6 |
| 20260504023057 | 8 | 0 | 0.0 | 1.6 | 0.00 | 0.00 | 0.00 | 67 | 1014.5 |
| 20260504021556 | 9 | 0 | 0.0 | 1.6 | 0.00 | 0.00 | 0.00 | 66 | 1014.3 |
| 20260504020057 | 9 | 0 | 0.0 | 1.6 | 0.00 | 0.00 | 0.00 | 64 | 1014.3 |
| 20260504014559 | 9 | 0 | 0.0 | 3.2 | 0.00 | 0.00 | 0.00 | 63 | 1014.3 |
| 20260504013113 | 10 | 305 | 0.0 | 3.2 | 0.00 | 0.00 | 0.00 | 60 | 1014.2 |
| 20260504011603 | 10 | 290 | 0.0 | 3.2 | 0.00 | 0.00 | 0.00 | 58 | 1014.4 |
| 20260504010105 | 11 | 271 | 0.0 | 3.2 | 0.00 | 0.00 | 0.00 | 56 | 1014.3 |
| 20260504004609 | 11 | 0 | 0.0 | 3.2 | 0.00 | 0.00 | 0.00 | 52 | 1014.1 |
| 20260504003057 | 12 | 245 | 0.0 | 3.2 | 0.00 | 0.00 | 0.00 | 49 | 1014.2 |
| 20260504001558 | 13 | 0 | 0.0 | 1.6 | 0.00 | 0.00 | 0.00 | 44 | 1014.0 |
| 20260504000114 | 14 | 0 | 0.0 | 1.6 | 0.00 | 0.00 | 0.00 | 42 | 1014.0 |
| 20260503234559 | 14 | 0 | 0.0 | 1.6 | 0.00 | 0.00 | 0.00 | 41 | 1014.0 |
| 20260503233101 | 15 | 88 | 0.0 | 4.8 | 0.00 | 0.00 | 0.00 | 35 | 1014.2 |
| 20260503231556 | 15 | 0 | 0.0 | 6.4 | 0.00 | 0.00 | 0.00 | 32 | 1014.4 |
| 20260503224558 | 16 | 94 | 0.0 | 12.9 | 0.00 | 0.00 | 0.00 | 36 | 1014.5 |
| 20260503223057 | 16 | 96 | 0.0 | 6.4 | 0.00 | 0.00 | 0.00 | 33 | 1014.5 |
| 20260503221558 | 16 | 232 | 0.0 | 8.0 | 0.00 | 0.00 | 0.00 | 31 | 1014.4 |
| 20260503220122 | 16 | 117 | 1.6 | 12.9 | 0.00 | 0.00 | 0.00 | 33 | 1014.7 |
| 20260503214604 | 17 | 124 | 1.6 | 6.4 | 0.00 | 0.00 | 0.00 | 34 | 1014.6 |
| 20260503213108 | 17 | 79 | 1.6 | 6.4 | 0.00 | 0.00 | 0.00 | 31 | 1014.6 |
| 20260503211557 | 17 | 175 | 1.6 | 6.4 | 0.00 | 0.00 | 0.00 | 34 | 1014.8 |
| 20260503210058 | 17 | 0 | 3.2 | 6.4 | 0.00 | 0.00 | 0.00 | 28 | 1015.0 |
| 20260503204603 | 17 | 31 | 3.2 | 14.5 | 0.00 | 0.00 | 0.00 | 32 | 1015.1 |
| 20260503203101 | 17 | 116 | 3.2 | 14.5 | 0.00 | 0.00 | 0.00 | 34 | 1015.4 |
| 20260503201557 | 16 | 0 | 1.6 | 9.7 | 0.00 | 0.00 | 0.00 | 31 | 1015.7 |
| 20260503194603 | 16 | 352 | 1.6 | 14.5 | 0.00 | 0.00 | 0.00 | 32 | 1016.2 |
| 20260503193108 | 16 | 317 | 3.2 | 12.9 | 0.00 | 0.00 | 0.00 | 31 | 1016.6 |
| 20260503191602 | 16 | 0 | 1.6 | 11.3 | 0.00 | 0.00 | 0.00 | 31 | 1016.8 |
| 20260503190056 | 16 | 114 | 1.6 | 9.7 | 0.00 | 0.00 | 0.00 | 35 | 1017.1 |
| 20260503184605 | 16 | 0 | 0.0 | 11.3 | 0.00 | 0.00 | 0.00 | 38 | 1017.6 |
| 20260503183058 | 15 | 61 | 3.2 | 12.9 | 0.00 | 0.00 | 0.00 | 34 | 1017.8 |
| 20260503181602 | 16 | 35 | 1.6 | 14.5 | 0.00 | 0.00 | 0.00 | 32 | 1017.8 |
| 20260503180111 | 15 | 268 | 1.6 | 12.9 | 0.00 | 0.00 | 0.00 | 34 | 1017.9 |
| 20260503174558 | 16 | 87 | 1.6 | 8.0 | 0.00 | 0.00 | 0.00 | 33 | 1018.2 |
| 20260503173111 | 15 | 257 | 1.6 | 14.5 | 0.00 | 0.00 | 0.00 | 36 | 1018.1 |
| 20260503171556 | 15 | 0 | 1.6 | 16.1 | 0.00 | 0.00 | 0.00 | 39 | 1018.2 |
| 20260503170111 | 14 | 0 | 1.6 | 9.7 | 0.00 | 0.00 | 0.00 | 36 | 1018.7 |
| 20260503160118 | 12 | 128 | 1.6 | 12.9 | 0.00 | 0.00 | 0.00 | 40 | 1019.5 |
| 20260503150104 | 11 | 117 | 1.6 | 9.7 | 0.00 | 0.00 | 0.00 | 46 | 1019.9 |